• In Moldova, Republic
  • List of Countries
  • For 7 days
  • Water Temperature
  • Satellite Maps
  • Weather Map
  • Weather Widgets
  • user-avatar
    Login

    Hourly Weather Shaki

    Today, 21 August, Monday

    Time Temperature Precipitation Wind Pressure Humidity
    00:00 +27°C° 0 mm 2 mps 735 mmHg 34%
    01:00 +26°C° 0 mm 2 mps 735 mmHg 34%
    02:00 +26°C° 0 mm 2 mps 735 mmHg 35%
    03:00 +25°C° 0 mm 2 mps 735 mmHg 36%
    04:00 +26°C° 0 mm 2 mps 735 mmHg 36%
    05:00 +26°C° 0 mm 2 mps 735 mmHg 36%
    06:00 +26°C° 0 mm 2 mps 734 mmHg 36%
    07:00 +28°C° 0 mm 2 mps 734 mmHg 32%
    08:00 +30°C° 0 mm 2 mps 734 mmHg 28%
    09:00 +32°C° 0 mm 2 mps 734 mmHg 24%
    10:00 +34°C° 0 mm 2 mps 734 mmHg 23%
    11:00 +35°C° 0 mm 2 mps 733 mmHg 22%
    12:00 +36°C° 0 mm 2 mps 733 mmHg 21%
    13:00 +37°C° 0 mm 3 mps 733 mmHg 21%
    14:00 +37°C° 0 mm 3 mps 732 mmHg 21%
    15:00 +38°C° 0 mm 3 mps 732 mmHg 21%
    16:00 +37°C° 0 mm 3 mps 732 mmHg 23%
    17:00 +36°C° 0 mm 3 mps 732 mmHg 25%
    18:00 +35°C° 0 mm 3 mps 732 mmHg 27%
    19:00 +33°C° 0 mm 3 mps 732 mmHg 29%
    20:00 +30°C° 0 mm 3 mps 732 mmHg 31%
    21:00 +29°C° 0 mm 3 mps 733 mmHg 32%
    22:00 +28°C° 0 mm 3 mps 733 mmHg 34%
    23:00 +28°C° 0 mm 3 mps 733 mmHg 35%

    Tomorrow, 22 August, Tuesday

    Time Temperature Precipitation Wind Pressure Humidity
    00:00 +27°C° 0 mm 2 mps 733 mmHg 36%
    01:00 +26°C° 0 mm 2 mps 732 mmHg 37%
    02:00 +26°C° 0 mm 2 mps 732 mmHg 38%
    03:00 +26°C° 0 mm 2 mps 732 mmHg 39%
    04:00 +26°C° 0 mm 2 mps 732 mmHg 38%
    05:00 +26°C° 0 mm 2 mps 732 mmHg 36%
    06:00 +26°C° 0 mm 2 mps 732 mmHg 35%
    07:00 +28°C° 0 mm 2 mps 732 mmHg 31%
    08:00 +31°C° 0 mm 1 mps 732 mmHg 26%
    09:00 +33°C° 0 mm 1 mps 732 mmHg 22%
    10:00 +35°C° 0 mm 2 mps 732 mmHg 21%
    11:00 +36°C° 0 mm 2 mps 732 mmHg 19%
    12:00 +37°C° 0 mm 3 mps 731 mmHg 18%
    13:00 +37°C° 0 mm 3 mps 731 mmHg 18%
    14:00 +38°C° 0 mm 3 mps 731 mmHg 18%
    15:00 +38°C° 0 mm 3 mps 730 mmHg 17%
    16:00 +37°C° 0 mm 3 mps 730 mmHg 20%
    17:00 +36°C° 0 mm 3 mps 730 mmHg 22%
    18:00 +35°C° 0 mm 3 mps 730 mmHg 25%
    19:00 +33°C° 0 mm 3 mps 731 mmHg 26%
    20:00 +31°C° 0 mm 3 mps 731 mmHg 27%
    21:00 +29°C° 0 mm 3 mps 732 mmHg 29%
    22:00 +28°C° 0 mm 3 mps 732 mmHg 30%
    23:00 +28°C° 0 mm 3 mps 732 mmHg 31%

    Day after tomorrow, 23 August, Wednesday

    Time Temperature Precipitation Wind Pressure Humidity
    00:00 +27°C° 0 mm 2 mps 731 mmHg 32%
    01:00 +27°C° 0 mm 2 mps 731 mmHg 32%
    02:00 +26°C° 0 mm 2 mps 731 mmHg 32%
    03:00 +26°C° 0 mm 2 mps 731 mmHg 32%
    04:00 +26°C° 0 mm 2 mps 732 mmHg 31%
    05:00 +26°C° 0 mm 1 mps 732 mmHg 30%
    06:00 +26°C° 0 mm 1 mps 732 mmHg 29%
    07:00 +29°C° 0 mm 1 mps 732 mmHg 26%
    08:00 +31°C° 0 mm 2 mps 732 mmHg 22%
    09:00 +34°C° 0 mm 2 mps 733 mmHg 18%
    10:00 +35°C° 0 mm 2 mps 732 mmHg 17%
    11:00 +37°C° 0 mm 3 mps 732 mmHg 16%
    12:00 +38°C° 0 mm 4 mps 732 mmHg 15%
    13:00 +38°C° 0 mm 4 mps 732 mmHg 15%
    14:00 +40°C° 0 mm 5 mps 732 mmHg 16%
    15:00 +40°C° 0 mm 5 mps 731 mmHg 16%
    16:00 +37°C° 0 mm 5 mps 732 mmHg 19%
    17:00 +36°C° 0 mm 4 mps 732 mmHg 21%
    18:00 +35°C° 0 mm 4 mps 732 mmHg 24%
    19:00 +33°C° 0 mm 4 mps 733 mmHg 25%
    20:00 +30°C° 0 mm 3 mps 733 mmHg 26%
    21:00 +28°C° 0 mm 3 mps 734 mmHg 27%
    22:00 +28°C° 0 mm 2 mps 734 mmHg 27%
    23:00 +27°C° 0 mm 2 mps 734 mmHg 28%

    24 August, Thursday

    Time Temperature Precipitation Wind Pressure Humidity
    00:00 +27°C° 0 mm 1 mps 734 mmHg 28%
    01:00 +26°C° 0 mm 1 mps 735 mmHg 28%
    02:00 +26°C° 0 mm 1 mps 735 mmHg 28%
    03:00 +26°C° 0 mm 2 mps 735 mmHg 29%
    04:00 +26°C° 0 mm 2 mps 735 mmHg 30%
    05:00 +26°C° 0 mm 2 mps 736 mmHg 31%
    06:00 +26°C° 0 mm 2 mps 736 mmHg 32%
    07:00 +28°C° 0 mm 2 mps 736 mmHg 28%
    08:00 +31°C° 0 mm 2 mps 736 mmHg 24%
    09:00 +34°C° 0 mm 2 mps 737 mmHg 21%
    10:00 +35°C° 0 mm 2 mps 736 mmHg 19%
    11:00 +36°C° 0 mm 3 mps 736 mmHg 17%
    12:00 +38°C° 0 mm 4 mps 736 mmHg 15%
    13:00 +39°C° 0 mm 5 mps 736 mmHg 15%
    14:00 +39°C° 0 mm 5 mps 736 mmHg 15%
    15:00 +40°C° 0 mm 5 mps 735 mmHg 14%
    16:00 +37°C° 0 mm 5 mps 735 mmHg 16%
    17:00 +36°C° 0 mm 4 mps 736 mmHg 19%
    18:00 +34°C° 0 mm 4 mps 736 mmHg 21%
    19:00 +33°C° 0 mm 4 mps 736 mmHg 21%
    20:00 +30°C° 0 mm 4 mps 737 mmHg 22%
    21:00 +28°C° 0 mm 4 mps 737 mmHg 22%
    22:00 +27°C° 0 mm 3 mps 737 mmHg 23%
    23:00 +27°C° 0 mm 3 mps 737 mmHg 24%

    25 August, Friday

    Time Temperature Precipitation Wind Pressure Humidity
    00:00 +26°C° 0 mm 2 mps 737 mmHg 24%
    01:00 +26°C° 0 mm 2 mps 737 mmHg 25%
    02:00 +25°C° 0 mm 2 mps 737 mmHg 25%
    03:00 +25°C° 0 mm 1 mps 737 mmHg 25%
    04:00 +25°C° 0 mm 1 mps 737 mmHg 26%
    05:00 +25°C° 0 mm 1 mps 737 mmHg 27%
    06:00 +25°C° 0 mm 1 mps 738 mmHg 27%
    07:00 +28°C° 0 mm 1 mps 738 mmHg 24%
    08:00 +30°C° 0 mm 1 mps 738 mmHg 21%
    09:00 +32°C° 0 mm 1 mps 738 mmHg 19%
    10:00 +34°C° 0 mm 2 mps 737 mmHg 17%
    11:00 +35°C° 0 mm 2 mps 737 mmHg 16%
    12:00 +37°C° 0 mm 3 mps 737 mmHg 14%
    13:00 +37°C° 0 mm 3 mps 736 mmHg 14%
    14:00 +38°C° 0 mm 3 mps 736 mmHg 13%
    15:00 +38°C° 0 mm 4 mps 736 mmHg 12%
    16:00 +37°C° 0 mm 3 mps 736 mmHg 14%
    17:00 +36°C° 0 mm 3 mps 736 mmHg 16%
    18:00 +34°C° 0 mm 3 mps 736 mmHg 17%
    19:00 +33°C° 0 mm 3 mps 736 mmHg 17%
    20:00 +30°C° 0 mm 3 mps 736 mmHg 18%
    21:00 +28°C° 0 mm 3 mps 737 mmHg 18%
    22:00 +27°C° 0 mm 3 mps 737 mmHg 19%
    23:00 +27°C° 0 mm 2 mps 737 mmHg 20%

    26 August, Saturday

    Time Temperature Precipitation Wind Pressure Humidity
    00:00 +26°C° 0 mm 2 mps 737 mmHg 20%
    01:00 +26°C° 0 mm 2 mps 737 mmHg 21%
    02:00 +25°C° 0 mm 2 mps 737 mmHg 21%
    03:00 +25°C° 0 mm 1 mps 737 mmHg 21%
    04:00 +25°C° 0 mm 1 mps 737 mmHg 22%
    05:00 +25°C° 0 mm 1 mps 737 mmHg 23%
    06:00 +25°C° 0 mm 1 mps 737 mmHg 24%
    07:00 +28°C° 0 mm 1 mps 737 mmHg 22%
    08:00 +30°C° 0 mm 1 mps 737 mmHg 20%
    09:00 +32°C° 0 mm 2 mps 737 mmHg 19%
    10:00 +34°C° 0 mm 2 mps 737 mmHg 17%
    11:00 +35°C° 0 mm 2 mps 736 mmHg 16%
    12:00 +36°C° 0 mm 3 mps 736 mmHg 15%
    13:00 +37°C° 0 mm 3 mps 736 mmHg 15%
    14:00 +37°C° 0 mm 3 mps 735 mmHg 15%
    15:00 +38°C° 0 mm 3 mps 735 mmHg 14%
    16:00 +36°C° 0 mm 3 mps 735 mmHg 16%
    17:00 +35°C° 0 mm 3 mps 735 mmHg 18%
    18:00 +34°C° 0 mm 3 mps 735 mmHg 20%
    19:00 +31°C° 0 mm 3 mps 735 mmHg 23%
    20:00 +29°C° 0 mm 3 mps 736 mmHg 26%
    21:00 +28°C° 0 mm 3 mps 736 mmHg 29%
    22:00 +27°C° 0 mm 3 mps 736 mmHg 32%
    23:00 +26°C° 0 mm 3 mps 736 mmHg 35%
    Show more